Погода в Варламово

Россия / Челябинская область     54°37′26″N   60°40′15″E
темп.,
°C
ветер,
м/с
пор.,
м/с
влажн.,
%
обл.,
%
осадки,
мм/ч
давл.,
гПа
погр.,
м
28 октября, чт
чт2823:00+1юз51274100 0.0 1019338
02:00+1юз71370100 0.0 1017375
05:00+1юз71367100 0.0 1015357
08:00+1юз71567100 0.0 1014435
11:00+3юз81453100 0.0 1012795
14:00+5юз9135213 0.0 10111038
17:00+3зюз812667 0.0 1013499
20:00+1зюз7127563 0.0 1014325
29 октября, пт
пт2923:00+1зюз6138072 0.0 1014336
02:00+1юз61280100 0.0 1014315
05:00+2зюз71276100 0.0 1014379
08:00+2зюз61176100 0.0 1015387
11:00+4зсз487499 0.0 1017847
14:00+3ссз565851 0.1 10201007
17:000ссз47480 0.1 1024270
20:00−3ссз37630 0.0 1027234
30 октября, сб
сб3023:00−4сз25633 0.0 1029218
02:00−4зюз2261100 0.0 102953
05:00−3ююз485698 0.0 1028248
08:00−3ююз41061100 0.0 1027286
11:00+1юз61058100 0.1 1024410
14:00+2юз91579100 0.6 1021603
17:00+4зюз101769100 0.8 1018762
20:00+4з71480100 0.0 1017747
31 октября, вс
вс3123:00+5з71582100 0.0 1017742
02:00+5зсз61486100 0.0 1018712
05:00+4зсз51291100 0.0 1020724
08:00+4зсз51092100 0.0 1022580
11:00+5сз5986100 0.0 1024538
14:00+6зсз467479 0.0 1025686
17:00+5зюз348196 0.0 102589
20:00+5юз4989100 0.0 1024366
1 ноября, пн
пн123:00+5зюз4887100 0.0 1024277
02:00+4зюз4787100 0.0 1022156
05:00+4зюз4988100 0.0 1021203
08:00+4зюз3690100 0.0 102091
11:00+7з4875100 0.0 1019507
14:00+8зсз51169100 0.0 1018931
17:00+7зсз4876100 0.0 1018265
20:00+5зсз3782100 0.0 1018184